Time,TemperatureF,DewpointF,PressureIn,WindDirection,WindDirectionDegrees,WindSpeedMPH,WindSpeedGustMPH,Humidity,HourlyPrecipIn,Conditions,Clouds,dailyrainin,SoftwareType,DateUTC
2013-01-13 00:02:00,-1.0,-4.0,-100.00,North,0,4.0,4.0,86,0.00,,,-99.99,,2013-01-13 07:02:00,
2013-01-13 00:12:00,-2.0,-5.0,-100.00,NE,41,2.0,3.0,88,0.00,,,-99.99,,2013-01-13 07:12:00,
2013-01-13 00:22:00,-2.0,-5.0,-100.00,NE,41,2.0,3.0,88,0.00,,,-99.99,,2013-01-13 07:22:00,
2013-01-13 00:30:00,-5.0,-8.0,-100.00,North,7,4.0,5.0,87,0.00,,,-99.99,,2013-01-13 07:30:00,
2013-01-13 00:32:00,-2.0,-5.0,-100.00,NE,41,2.0,3.0,88,0.00,,,-99.99,,2013-01-13 07:32:00,
2013-01-13 00:42:00,-6.0,-9.0,-100.00,North,4,4.0,5.0,85,0.00,,,-99.99,,2013-01-13 07:42:00,
2013-01-13 00:52:00,-6.0,-9.0,-100.00,North,4,4.0,5.0,85,0.00,,,-99.99,,2013-01-13 07:52:00,
2013-01-13 01:02:00,-6.0,-9.0,-100.00,North,4,4.0,5.0,85,0.00,,,-99.99,,2013-01-13 08:02:00,
2013-01-13 01:11:00,-5.0,-8.0,-100.00,North,7,4.0,5.0,87,0.00,,,-99.99,,2013-01-13 08:11:00,
2013-01-13 01:22:00,-5.0,-8.0,-100.00,North,7,4.0,5.0,87,0.00,,,-99.99,,2013-01-13 08:22:00,
2013-01-13 02:22:00,-13.0,-17.0,-100.00,NNW,335,4.0,5.0,79,0.00,,,-99.99,,2013-01-13 09:22:00,
2013-01-13 02:32:00,-13.0,-17.0,-100.00,NNW,335,4.0,5.0,79,0.00,,,-99.99,,2013-01-13 09:32:00,
2013-01-13 02:42:00,-13.0,-16.0,-100.00,NNW,336,3.0,4.0,85,0.00,,,-99.99,,2013-01-13 09:42:00,
2013-01-13 02:52:00,-13.0,-16.0,-100.00,NNW,336,3.0,4.0,85,0.00,,,-99.99,,2013-01-13 09:52:00,
2013-01-13 03:02:00,-13.0,-16.0,-100.00,NNW,336,3.0,4.0,85,0.00,,,-99.99,,2013-01-13 10:02:00,
2013-01-13 03:11:00,-17.0,-22.0,-100.00,NW,313,6.0,7.0,79,0.00,,,-99.99,,2013-01-13 10:11:00,
2013-01-13 03:22:00,-16.0,-20.0,-100.00,NW,322,6.0,6.0,81,0.00,,,-99.99,,2013-01-13 10:22:00,
2013-01-13 03:32:00,-16.0,-20.0,-100.00,NW,322,6.0,6.0,81,0.00,,,-99.99,,2013-01-13 10:32:00,
2013-01-13 03:42:00,-16.0,-20.0,-100.00,WNW,292,6.0,7.0,81,0.00,,,-99.99,,2013-01-13 10:42:00,
2013-01-13 03:52:00,-19.0,-23.0,-100.00,WNW,291,6.0,6.0,82,0.00,,,-99.99,,2013-01-13 10:52:00,
2013-01-13 04:02:00,-19.0,-23.0,-100.00,WNW,291,6.0,6.0,82,0.00,,,-99.99,,2013-01-13 11:02:00,
2013-01-13 04:12:00,-19.0,-23.0,-100.00,WNW,291,6.0,6.0,82,0.00,,,-99.99,,2013-01-13 11:12:00,
2013-01-13 04:22:00,-19.0,-23.0,-100.00,NW,309,6.0,7.0,80,0.00,,,-99.99,,2013-01-13 11:22:00,
2013-01-13 04:32:00,-19.0,-23.0,-100.00,NW,309,6.0,7.0,80,0.00,,,-99.99,,2013-01-13 11:32:00,
2013-01-13 04:42:00,-15.0,-19.0,-100.00,North,349,6.0,6.0,81,0.00,,,-99.99,,2013-01-13 11:42:00,
2013-01-13 04:52:00,-17.0,-21.0,-100.00,NNW,344,4.0,5.0,79,0.00,,,-99.99,,2013-01-13 11:52:00,
2013-01-13 05:02:00,-17.0,-21.0,-100.00,NNW,344,4.0,5.0,79,0.00,,,-99.99,,2013-01-13 12:02:00,
2013-01-13 05:12:00,-17.0,-21.0,-100.00,NNW,344,4.0,5.0,79,0.00,,,-99.99,,2013-01-13 12:12:00,
2013-01-13 05:22:00,-17.0,-21.0,-100.00,North,1,4.0,4.0,80,0.00,,,-99.99,,2013-01-13 12:22:00,
2013-01-13 05:32:00,-17.0,-21.0,-100.00,North,1,4.0,4.0,80,0.00,,,-99.99,,2013-01-13 12:32:00,
2013-01-13 05:42:00,-17.0,-22.0,-100.00,NNW,343,3.0,3.0,80,0.00,,,-99.99,,2013-01-13 12:42:00,
2013-01-13 05:53:00,-17.0,-22.0,-100.00,NNW,343,3.0,3.0,80,0.00,,,-99.99,,2013-01-13 12:53:00,
2013-01-13 06:02:00,-19.0,-23.0,-100.00,North,10,1.0,1.0,79,0.00,,,-99.99,,2013-01-13 13:02:00,
2013-01-13 06:12:00,-19.0,-23.0,-100.00,North,10,1.0,1.0,79,0.00,,,-99.99,,2013-01-13 13:12:00,
2013-01-13 06:22:00,-19.0,-23.0,-100.00,North,10,1.0,1.0,79,0.00,,,-99.99,,2013-01-13 13:22:00,
2013-01-13 06:32:00,-19.0,-23.0,-100.00,North,10,1.0,1.0,79,0.00,,,-99.99,,2013-01-13 13:32:00,
2013-01-13 06:42:00,-19.0,-23.0,-100.00,North,10,0.0,0.0,79,0.00,,,-99.99,,2013-01-13 13:42:00,
2013-01-13 06:53:00,-17.0,-21.0,-100.00,North,8,0.0,0.0,80,0.00,,,-99.99,,2013-01-13 13:53:00,
2013-01-13 07:02:00,-18.0,-22.0,-100.00,North,352,0.0,0.0,80,0.00,,,-99.99,,2013-01-13 14:02:00,
2013-01-13 07:12:00,-18.0,-22.0,-100.00,North,352,0.0,0.0,80,0.00,,,-99.99,,2013-01-13 14:12:00,
2013-01-13 07:22:00,-18.0,-22.0,-100.00,North,352,0.0,0.0,80,0.00,,,-99.99,,2013-01-13 14:22:00,
2013-01-13 07:33:00,-18.0,-22.0,-100.00,North,352,0.0,0.0,80,0.00,,,-99.99,,2013-01-13 14:33:00,
2013-01-13 07:42:00,-21.0,-26.0,-100.00,NNW,343,0.0,0.0,79,0.00,,,-99.99,,2013-01-13 14:42:00,
2013-01-13 07:53:00,-19.0,-23.0,-100.00,NNW,343,4.0,5.0,79,0.00,,,-99.99,,2013-01-13 14:53:00,
2013-01-13 08:03:00,-19.0,-23.0,-100.00,NNW,343,4.0,5.0,79,0.00,,,-99.99,,2013-01-13 15:03:00,
2013-01-13 08:12:00,-19.0,-23.0,-100.00,NNW,343,4.0,5.0,79,0.00,,,-99.99,,2013-01-13 15:12:00,
2013-01-13 08:23:00,-11.0,-14.0,-100.00,North,4,4.0,5.0,84,0.00,,,-99.99,,2013-01-13 15:23:00,
2013-01-13 08:33:00,-11.0,-14.0,-100.00,North,4,4.0,5.0,84,0.00,,,-99.99,,2013-01-13 15:33:00,
2013-01-13 08:43:00,-11.0,-14.0,-100.00,North,4,4.0,5.0,84,0.00,,,-99.99,,2013-01-13 15:43:00,
2013-01-13 08:53:00,-8.0,-12.0,-100.00,North,8,5.0,6.0,83,0.00,,,-99.99,,2013-01-13 15:53:00,
2013-01-13 09:03:00,-8.0,-12.0,-100.00,North,8,5.0,6.0,83,0.00,,,-99.99,,2013-01-13 16:03:00,
2013-01-13 09:12:00,-8.0,-12.0,-100.00,North,356,4.0,5.0,83,0.00,,,-99.99,,2013-01-13 16:12:00,
2013-01-13 09:22:00,-8.0,-11.0,-100.00,NNW,339,5.0,6.0,83,0.00,,,-99.99,,2013-01-13 16:22:00,
2013-01-13 09:33:00,-8.0,-11.0,-100.00,NNW,339,5.0,6.0,83,0.00,,,-99.99,,2013-01-13 16:33:00,
2013-01-13 09:42:00,-7.0,-10.0,-100.00,North,6,4.0,5.0,84,0.00,,,-99.99,,2013-01-13 16:42:00,
2013-01-13 09:53:00,-7.0,-10.0,-100.00,North,6,4.0,5.0,84,0.00,,,-99.99,,2013-01-13 16:53:00,
2013-01-13 10:02:00,-7.0,-10.0,-100.00,North,6,4.0,5.0,84,0.00,,,-99.99,,2013-01-13 17:02:00,
2013-01-13 10:12:00,-6.0,-9.0,-100.00,North,4,4.0,4.0,85,0.00,,,-99.99,,2013-01-13 17:12:00,
2013-01-13 10:22:00,-5.0,-9.0,-100.00,North,349,4.0,4.0,85,0.00,,,-99.99,,2013-01-13 17:22:00,
2013-01-13 10:33:00,-5.0,-9.0,-100.00,North,349,4.0,4.0,85,0.00,,,-99.99,,2013-01-13 17:33:00,
2013-01-13 10:43:00,-4.0,-8.0,-100.00,North,352,4.0,4.0,85,0.00,,,-99.99,,2013-01-13 17:43:00,
2013-01-13 10:53:00,-4.0,-8.0,-100.00,North,352,4.0,4.0,85,0.00,,,-99.99,,2013-01-13 17:53:00,
2013-01-13 11:02:00,-4.0,-8.0,-100.00,North,352,4.0,4.0,85,0.00,,,-99.99,,2013-01-13 18:02:00,
2013-01-13 11:12:00,-3.0,-6.0,-100.00,North,349,4.0,4.0,85,0.00,,,-99.99,,2013-01-13 18:12:00,
2013-01-13 11:22:00,-2.0,-5.0,-100.00,NNE,17,3.0,4.0,86,0.00,,,-99.99,,2013-01-13 18:22:00,
2013-01-13 11:32:00,-2.0,-5.0,-100.00,NNE,17,3.0,4.0,86,0.00,,,-99.99,,2013-01-13 18:32:00,
2013-01-13 11:42:00,-1.0,-5.0,-100.00,NE,38,3.0,3.0,86,0.00,,,-99.99,,2013-01-13 18:42:00,
2013-01-13 11:53:00,3.0,0.0,-100.00,NE,38,1.0,2.0,88,0.00,,,-99.99,,2013-01-13 18:53:00,
2013-01-13 12:02:00,3.0,0.0,-100.00,NE,38,1.0,2.0,88,0.00,,,-99.99,,2013-01-13 19:02:00,
2013-01-13 12:22:00,2.0,-2.0,-100.00,NW,326,2.0,2.0,84,0.00,,,-99.99,,2013-01-13 19:22:00,
2013-01-13 12:32:00,2.0,-2.0,-100.00,NW,326,2.0,2.0,84,0.00,,,-99.99,,2013-01-13 19:32:00,
2013-01-13 12:42:00,4.0,2.0,-100.00,NE,38,1.0,2.0,89,0.00,,,-99.99,,2013-01-13 19:42:00,
2013-01-13 12:53:00,1.0,-1.0,-100.00,East,80,3.0,4.0,87,0.00,,,-99.99,,2013-01-13 19:53:00,
2013-01-13 13:02:00,1.0,-1.0,-100.00,East,80,3.0,4.0,87,0.00,,,-99.99,,2013-01-13 20:02:00,
2013-01-13 13:12:00,2.0,-1.0,-100.00,NE,41,2.0,3.0,85,0.00,,,-99.99,,2013-01-13 20:12:00,
2013-01-13 13:22:00,2.0,-1.0,-100.00,NE,41,2.0,3.0,85,0.00,,,-99.99,,2013-01-13 20:22:00,
2013-01-13 13:32:00,2.0,-1.0,-100.00,NE,41,2.0,3.0,85,0.00,,,-99.99,,2013-01-13 20:32:00,
2013-01-13 13:43:00,4.0,0.0,-100.00,NW,320,2.0,3.0,82,0.00,,,-99.99,,2013-01-13 20:43:00,
2013-01-13 13:53:00,4.0,-1.0,-100.00,NW,316,2.0,3.0,81,0.00,,,-99.99,,2013-01-13 20:53:00,
2013-01-13 14:03:00,4.0,-1.0,-100.00,NW,316,2.0,3.0,81,0.00,,,-99.99,,2013-01-13 21:03:00,
2013-01-13 14:12:00,4.0,-1.0,-100.00,NW,316,2.0,3.0,81,0.00,,,-99.99,,2013-01-13 21:12:00,
2013-01-13 14:22:00,6.0,2.0,-100.00,NNW,330,2.0,2.0,82,0.00,,,-99.99,,2013-01-13 21:22:00,
2013-01-13 14:32:00,6.0,2.0,-100.00,NNW,330,2.0,2.0,82,0.00,,,-99.99,,2013-01-13 21:32:00,
2013-01-13 14:42:00,12.0,6.0,-100.00,WSW,253,0.0,1.0,76,0.00,,,-99.99,,2013-01-13 21:42:00,
2013-01-13 14:53:00,8.0,1.0,-100.00,SSE,148,1.0,2.0,75,0.00,,,-99.99,,2013-01-13 21:53:00,
2013-01-13 15:02:00,8.0,1.0,-100.00,SSE,148,1.0,2.0,75,0.00,,,-99.99,,2013-01-13 22:02:00,
2013-01-13 15:12:00,4.0,-1.0,-100.00,WSW,241,2.0,3.0,77,0.00,,,-99.99,,2013-01-13 22:12:00,
2013-01-13 15:22:00,4.0,-1.0,-100.00,WSW,241,2.0,3.0,77,0.00,,,-99.99,,2013-01-13 22:22:00,
2013-01-13 15:33:00,4.0,-1.0,-100.00,WSW,241,2.0,3.0,77,0.00,,,-99.99,,2013-01-13 22:33:00,
2013-01-13 15:42:00,5.0,-1.0,-100.00,SSW,210,1.0,1.0,77,0.00,,,-99.99,,2013-01-13 22:42:00,
2013-01-13 15:52:00,4.0,-2.0,-100.00,SSW,196,2.0,3.0,79,0.00,,,-99.99,,2013-01-13 22:52:00,
2013-01-13 16:02:00,4.0,-2.0,-100.00,SSW,196,2.0,3.0,79,0.00,,,-99.99,,2013-01-13 23:02:00,
2013-01-13 16:12:00,3.0,-2.0,-100.00,SSW,206,1.0,2.0,80,0.00,,,-99.99,,2013-01-13 23:12:00,
2013-01-13 16:22:00,2.0,-3.0,-100.00,SW,226,4.0,4.0,81,0.00,,,-99.99,,2013-01-13 23:22:00,
2013-01-13 16:32:00,2.0,-3.0,-100.00,SW,226,4.0,4.0,81,0.00,,,-99.99,,2013-01-13 23:32:00,
2013-01-13 16:42:00,1.0,-3.0,-100.00,SW,233,3.0,4.0,84,0.00,,,-99.99,,2013-01-13 23:42:00,
2013-01-13 16:53:00,1.0,-3.0,-100.00,SW,233,3.0,4.0,84,0.00,,,-99.99,,2013-01-13 23:53:00,
2013-01-13 17:02:00,1.0,-3.0,-100.00,SW,233,3.0,4.0,84,0.00,,,-99.99,,2013-01-14 00:02:00,
2013-01-13 17:12:00,-1.0,-4.0,-100.00,WSW,250,4.0,4.0,88,0.00,,,-99.99,,2013-01-14 00:12:00,
2013-01-13 17:22:00,-1.0,-3.0,-100.00,WSW,246,4.0,4.0,89,0.00,,,-99.99,,2013-01-14 00:22:00,
2013-01-13 17:32:00,-1.0,-3.0,-100.00,WSW,246,4.0,4.0,89,0.00,,,-99.99,,2013-01-14 00:32:00,
2013-01-13 17:42:00,-3.0,-6.0,-100.00,WSW,241,5.0,6.0,88,0.00,,,-99.99,,2013-01-14 00:42:00,
2013-01-13 17:53:00,-3.0,-6.0,-100.00,WSW,241,5.0,6.0,88,0.00,,,-99.99,,2013-01-14 00:53:00,
2013-01-13 18:02:00,-3.0,-6.0,-100.00,WSW,241,5.0,6.0,88,0.00,,,-99.99,,2013-01-14 01:02:00,
2013-01-13 18:12:00,-3.0,-6.0,-100.00,WSW,257,4.0,5.0,88,0.00,,,-99.99,,2013-01-14 01:12:00,
2013-01-13 18:22:00,-9.0,-12.0,-100.00,WNW,291,3.0,3.0,85,0.00,,,-99.99,,2013-01-14 01:22:00,
2013-01-13 18:32:00,-9.0,-12.0,-100.00,WNW,291,3.0,3.0,85,0.00,,,-99.99,,2013-01-14 01:32:00,
2013-01-13 18:42:00,-11.0,-15.0,-100.00,WNW,302,3.0,3.0,82,0.00,,,-99.99,,2013-01-14 01:42:00,
2013-01-13 18:52:00,-11.0,-15.0,-100.00,WNW,302,3.0,3.0,82,0.00,,,-99.99,,2013-01-14 01:52:00,
2013-01-13 19:02:00,-11.0,-15.0,-100.00,WNW,302,3.0,3.0,82,0.00,,,-99.99,,2013-01-14 02:02:00,
2013-01-13 19:12:00,-12.0,-15.0,-100.00,WNW,301,4.0,5.0,85,0.00,,,-99.99,,2013-01-14 02:12:00,
2013-01-13 19:22:00,-14.0,-19.0,-100.00,NW,312,3.0,3.0,81,0.00,,,-99.99,,2013-01-14 02:22:00,
2013-01-13 19:32:00,-15.0,-19.0,-100.00,NNW,337,4.0,4.0,82,0.00,,,-99.99,,2013-01-14 02:32:00,
2013-01-13 19:42:00,-15.0,-19.0,-100.00,NNW,337,4.0,4.0,82,0.00,,,-99.99,,2013-01-14 02:42:00,
2013-01-13 19:53:00,-15.0,-19.0,-100.00,NNW,337,4.0,4.0,82,0.00,,,-99.99,,2013-01-14 02:53:00,
2013-01-13 20:02:00,-15.0,-19.0,-100.00,NNW,337,4.0,4.0,82,0.00,,,-99.99,,2013-01-14 03:02:00,
2013-01-13 20:12:00,-15.0,-19.0,-100.00,NNW,337,4.0,4.0,81,0.00,,,-99.99,,2013-01-14 03:12:00,
2013-01-13 20:22:00,-16.0,-20.0,-100.00,North,352,4.0,5.0,81,0.00,,,-99.99,,2013-01-14 03:22:00,
2013-01-13 20:32:00,-16.0,-20.0,-100.00,North,352,4.0,5.0,81,0.00,,,-99.99,,2013-01-14 03:32:00,
2013-01-13 20:43:00,-16.0,-20.0,-100.00,NNW,340,5.0,6.0,82,0.00,,,-99.99,,2013-01-14 03:43:00,
2013-01-13 20:53:00,-18.0,-22.0,-100.00,North,4,5.0,6.0,79,0.00,,,-99.99,,2013-01-14 03:53:00,
2013-01-13 21:02:00,-18.0,-22.0,-100.00,North,4,5.0,6.0,79,0.00,,,-99.99,,2013-01-14 04:02:00,
2013-01-13 21:12:00,-19.0,-23.0,-100.00,North,7,6.0,6.0,80,0.00,,,-99.99,,2013-01-14 04:12:00,
2013-01-13 21:22:00,-19.0,-23.0,-100.00,North,7,6.0,6.0,80,0.00,,,-99.99,,2013-01-14 04:22:00,
2013-01-13 21:32:00,-19.0,-23.0,-100.00,North,7,6.0,6.0,80,0.00,,,-99.99,,2013-01-14 04:32:00,
2013-01-13 21:42:00,-21.0,-25.0,-100.00,NNW,337,3.0,4.0,80,0.00,,,-99.99,,2013-01-14 04:42:00,
2013-01-13 21:53:00,-21.0,-25.0,-100.00,NNW,337,3.0,4.0,80,0.00,,,-99.99,,2013-01-14 04:53:00,
2013-01-13 22:03:00,-22.0,-26.0,-100.00,NNW,344,4.0,5.0,78,0.00,,,-99.99,,2013-01-14 05:03:00,
2013-01-13 22:12:00,-23.0,-28.0,-100.00,NNW,346,6.0,7.0,77,0.00,,,-99.99,,2013-01-14 05:12:00,
2013-01-13 22:22:00,-23.0,-28.0,-100.00,NNW,346,6.0,7.0,77,0.00,,,-99.99,,2013-01-14 05:22:00,
2013-01-13 22:42:00,-22.0,-27.0,-100.00,NNW,346,4.0,5.0,78,0.00,,,-99.99,,2013-01-14 05:42:00,
2013-01-13 22:53:00,-22.0,-27.0,-100.00,NNW,346,4.0,5.0,78,0.00,,,-99.99,,2013-01-14 05:53:00,
2013-01-13 23:12:00,-21.0,-25.0,-100.00,NNW,330,4.0,4.0,78,0.00,,,-99.99,,2013-01-14 06:12:00,
2013-01-13 23:22:00,-19.0,-23.0,-100.00,North,7,3.0,4.0,80,0.00,,,-99.99,,2013-01-14 06:22:00,
2013-01-13 23:32:00,-19.0,-23.0,-100.00,North,7,3.0,4.0,80,0.00,,,-99.99,,2013-01-14 06:32:00,
2013-01-13 23:42:00,-18.0,-22.0,-100.00,North,350,3.0,4.0,80,0.00,,,-99.99,,2013-01-14 06:42:00,
2013-01-13 23:52:00,-16.0,-20.0,-100.00,North,8,3.0,4.0,81,0.00,,,-99.99,,2013-01-14 06:52:00,